FW5361 Weather Reports


Display with metric or nautical units.
time (UTC)temp
F
wind
direction
speed
MPH
gust
MPH
rain 1hr
in
rain 24hr
in
rain mn
in
humidity
%
barometer
mb
20260506211043 57 177 2.0 9.0 0.00 0.89 0.66 55 1009.9
20260506210541 57 149 4.0 9.0 0.00 0.89 0.66 54 1009.8
20260506210051 57 147 2.0 7.0 0.00 0.89 0.66 53 1009.8
20260506205540 58 154 2.0 6.0 0.00 0.89 0.66 54 1009.8
20260506205040 58 144 1.0 11.0 0.00 0.89 0.66 53 1009.8
20260506204552 57 0 3.0 11.0 0.00 0.89 0.66 50 1009.6
20260506204041 58 131 3.0 7.0 0.00 0.89 0.66 50 1009.7
20260506203540 58 0 1.0 6.0 0.00 0.89 0.66 52 1009.7
20260506203053 58 159 0.0 10.0 0.00 0.89 0.66 52 1009.7
20260506202542 58 217 1.0 10.0 0.00 0.89 0.66 52 1009.6
20260506202046 58 144 1.0 10.0 0.00 0.89 0.66 51 1009.7
20260506201550 58 0 5.0 10.0 0.00 0.89 0.66 51 1009.8
20260506201043 58 134 1.0 7.0 0.00 0.89 0.66 55 1009.8
20260506200542 58 0 2.0 7.0 0.00 0.89 0.66 54 1009.7
20260506200051 58 0 1.0 9.0 0.00 0.89 0.66 53 1009.7
20260506195539 58 246 3.0 9.0 0.00 0.89 0.66 53 1009.7
20260506195040 58 140 3.0 9.0 0.00 0.89 0.66 50 1009.6
20260506194549 58 117 1.0 9.0 0.00 0.89 0.66 51 1009.7
20260506194038 58 129 5.0 9.0 0.00 0.89 0.66 50 1009.6
20260506193541 58 125 3.0 8.0 0.00 0.89 0.66 49 1009.6
20260506193054 59 186 1.0 7.0 0.00 0.89 0.66 48 1009.6
20260506192540 59 171 2.0 8.0 0.00 0.89 0.66 56 1009.6
20260506192039 59 267 0.0 8.0 0.00 0.89 0.66 53 1009.6
20260506191559 58 114 1.0 8.0 0.00 0.89 0.66 56 1009.7
20260506191043 57 0 0.0 9.0 0.00 0.89 0.66 53 1009.8
20260506190540 57 112 2.0 9.0 0.00 0.89 0.66 53 1009.8
20260506190053 57 140 2.0 9.0 0.00 0.89 0.66 54 1009.9
20260506185540 58 126 3.0 12.0 0.00 0.89 0.66 52 1010.0
20260506185042 57 186 3.0 12.0 0.00 0.89 0.66 54 1009.9
20260506184557 57 165 2.0 7.0 0.00 0.89 0.66 56 1010.0
20260506184042 57 129 0.0 5.0 0.00 0.89 0.66 55 1009.9
20260506183542 57 148 0.0 6.0 0.00 0.89 0.66 56 1009.8
20260506183101 56 0 0.0 6.0 0.00 0.89 0.66 56 1009.8
20260506182544 57 138 1.0 6.0 0.00 0.89 0.66 59 1009.8
20260506182039 56 150 1.0 8.0 0.00 0.89 0.66 56 1009.9
20260506181604 56 0 3.0 8.0 0.00 0.89 0.66 58 1010.1
20260506181040 56 134 3.0 8.0 0.00 0.89 0.66 60 1010.1
20260506180542 56 158 4.0 12.0 0.00 0.89 0.66 55 1010.0
20260506180051 56 0 2.0 12.0 0.00 0.89 0.66 55 1009.9
20260506175539 57 140 2.0 9.0 0.00 0.89 0.66 56 1009.9
20260506175041 57 0 2.0 11.0 0.00 0.89 0.66 57 1009.8
20260506174550 57 69 3.0 11.0 0.00 0.89 0.66 59 1009.8
20260506174039 56 144 8.0 11.0 0.00 0.89 0.66 57 1009.8
20260506173539 57 207 1.0 6.0 0.00 0.89 0.66 58 1009.9
20260506173116 56 159 0.0 7.0 0.00 0.89 0.66 67 1009.8
20260506172543 56 138 2.0 8.0 0.00 0.89 0.66 64 1009.9
20260506172042 56 0 2.0 8.0 0.00 0.89 0.66 61 1009.9
20260506171554 55 196 3.0 8.0 0.00 0.89 0.66 65 1010.1
20260506171043 55 126 3.0 12.0 0.00 0.89 0.66 66 1010.4
20260506170543 55 0 2.0 12.0 0.00 0.89 0.66 67 1010.2
20260506170105 56 121 4.0 11.0 0.00 0.89 0.66 66 1010.0
20260506165539 56 0 2.0 11.0 0.00 0.89 0.66 67 1010.0
20260506165040 55 147 5.0 11.0 0.00 0.89 0.66 70 1009.8
20260506164551 54 153 5.0 10.0 0.00 0.89 0.66 70 1009.8
20260506164043 54 140 1.0 7.0 0.00 0.89 0.66 72 1009.8
20260506163539 54 0 0.0 7.0 0.00 0.89 0.66 74 1009.9
20260506163056 54 119 0.0 9.0 0.00 0.89 0.66 71 1010.0
20260506162539 54 0 1.0 9.0 0.00 0.89 0.66 74 1010.0
20260506162043 53 124 1.0 8.0 0.00 0.89 0.66 77 1010.0
20260506161553 53 133 2.0 8.0 0.00 0.89 0.66 77 1009.9
20260506161043 53 212 0.0 4.0 0.00 0.89 0.66 78 1010.0
20260506160543 53 0 0.0 5.0 0.00 0.89 0.66 79 1010.0
20260506160053 52 0 1.0 5.0 0.00 0.89 0.66 79 1010.0
20260506155544 52 136 1.0 6.0 0.00 0.89 0.66 79 1009.9
20260506155046 51 0 0.0 6.0 0.00 0.89 0.66 78 1009.8
20260506154611 52 304 0.0 4.0 0.00 0.89 0.66 80 1009.8
20260506154043 52 275 1.0 4.0 0.00 0.89 0.66 82 1009.6
20260506153539 51 0 0.0 7.0 0.00 0.89 0.66 80 1009.7
20260506153049 50 242 2.0 8.0 0.00 0.89 0.66 82 1009.8
20260506152542 50 164 4.0 8.0 0.00 0.89 0.66 81 1009.9
20260506152042 50 139 4.0 8.0 0.00 0.89 0.66 83 1009.5
20260506151552 50 119 1.0 10.0 0.00 0.89 0.66 84 1009.4
20260506151042 49 213 1.0 10.0 0.00 0.89 0.66 85 1009.3
20260506150542 49 179 1.0 7.0 0.00 0.89 0.66 86 1009.1
20260506150050 49 0 2.0 7.0 0.00 0.89 0.66 86 1009.1
20260506145540 49 0 3.0 8.0 0.00 0.89 0.66 86 1009.0
20260506145044 49 152 3.0 8.0 0.00 0.89 0.66 87 1009.1
20260506144556 49 131 1.0 6.0 0.00 0.89 0.66 88 1009.0
20260506144041 49 0 1.0 5.0 0.00 0.89 0.66 88 1009.1
20260506143542 49 199 1.0 11.0 0.00 0.89 0.66 87 1009.1
20260506143053 49 169 4.0 11.0 0.00 0.89 0.66 88 1009.0
20260506142545 49 132 3.0 6.0 0.00 0.89 0.66 89 1009.0
20260506142039 49 0 2.0 8.0 0.00 0.89 0.66 89 1008.8
20260506141551 49 226 1.0 11.0 0.00 0.89 0.66 89 1008.5
20260506141041 49 249 1.0 11.0 0.00 0.89 0.66 89 1008.6
20260506140545 49 233 3.0 9.0 0.00 0.89 0.66 89 1008.8
20260506140051 49 173 4.0 8.0 0.00 0.89 0.66 90 1008.5
20260506135541 49 116 1.0 5.0 0.00 0.89 0.66 90 1008.4
20260506135039 49 157 1.0 5.0 0.00 0.89 0.66 90 1008.4
20260506134551 49 0 2.0 5.0 0.00 0.89 0.66 90 1008.2
20260506134042 49 184 2.0 5.0 0.00 0.89 0.66 91 1008.3
20260506133539 48 0 0.0 7.0 0.00 0.89 0.66 92 1008.2
20260506133102 48 0 1.0 7.0 0.00 0.89 0.66 92 1008.2
20260506132539 48 139 0.0 3.0 0.00 0.89 0.66 92 1008.4
20260506132040 48 157 0.0 3.0 0.00 0.89 0.66 93 1008.2
20260506131548 48 0 0.0 2.0 0.00 0.89 0.66 93 1008.1
20260506131042 47 180 0.0 2.0 0.01 0.89 0.66 93 1007.9
20260506130542 47 0 0.0 4.0 0.01 0.89 0.66 93 1007.9
20260506130047 47 286 0.0 5.0 0.01 0.89 0.66 93 1008.1
20260506125538 47 142 1.0 5.0 0.01 0.89 0.66 93 1008.1
20260506125041 47 0 1.0 5.0 0.01 0.89 0.66 94 1008.0
20260506124549 47 188 0.0 4.0 0.01 0.89 0.66 94 1007.8
20260506124040 46 0 0.0 6.0 0.01 0.89 0.66 93 1007.5
20260506123539 46 0 0.0 6.0 0.01 0.89 0.66 94 1007.3
20260506123050 46 196 0.0 3.0 0.01 0.89 0.66 93 1007.3
20260506122539 46 0 0.0 3.0 0.01 0.89 0.66 93 1007.6
20260506122039 46 0 0.0 4.0 0.02 0.89 0.66 93 1007.7
20260506121551 46 0 0.0 4.0 0.02 0.89 0.66 93 1007.6
20260506121040 46 217 0.0 2.0 0.02 0.88 0.65 94 1007.5
20260506120540 46 0 0.0 5.0 0.02 0.88 0.65 94 1007.2
20260506120052 46 0 0.0 5.0 0.02 0.88 0.65 94 1007.2
20260506115542 46 217 1.0 4.0 0.02 0.88 0.65 94 1007.4
20260506115041 45 0 0.0 4.0 0.02 0.88 0.65 94 1007.2
20260506114549 45 0 1.0 4.0 0.02 0.88 0.65 93 1006.9
20260506114041 45 0 1.0 4.0 0.02 0.88 0.65 93 1006.7
20260506113539 45 0 0.0 4.0 0.02 0.88 0.65 93 1006.7
20260506113049 45 0 0.0 3.0 0.02 0.88 0.65 93 1006.8
20260506112540 46 218 0.0 5.0 0.01 0.87 0.64 93 1006.7
20260506112038 46 0 0.0 5.0 0.01 0.87 0.64 93 1006.8
20260506111547 46 0 0.0 5.0 0.01 0.87 0.64 93 1006.8
20260506111041 46 0 0.0 5.0 0.00 0.86 0.63 93 1006.8
20260506110540 46 136 0.0 5.0 0.00 0.86 0.63 93 1006.9
20260506110050 46 180 0.0 7.0 0.00 0.86 0.63 93 1006.7
20260506105539 45 0 0.0 7.0 0.00 0.86 0.63 93 1006.4
20260506105041 46 0 1.0 7.0 0.00 0.86 0.63 93 1006.5
20260506104610 46 0 1.0 3.0 0.00 0.86 0.63 94 1006.5
20260506104041 45 218 0.0 4.0 0.00 0.86 0.63 94 1005.9
20260506103542 46 202 0.0 4.0 0.01 0.86 0.63 94 1005.5
20260506103046 46 0 0.0 3.0 0.02 0.86 0.63 94 1005.3
20260506102540 46 0 0.0 3.0 0.02 0.86 0.63 94 1005.2
20260506102043 46 0 0.0 2.0 0.03 0.86 0.63 93 1005.2
20260506101550 46 0 0.0 3.0 0.04 0.86 0.63 93 1005.4
20260506101039 46 0 0.0 7.0 0.04 0.86 0.63 93 1005.3
20260506100541 46 327 1.0 7.0 0.06 0.86 0.63 93 1005.8
20260506100046 46 246 1.0 5.0 0.07 0.86 0.63 93 1005.6
20260506095539 46 236 1.0 4.0 0.09 0.86 0.63 93 1005.7
20260506095040 46 210 0.0 3.0 0.10 0.86 0.63 93 1005.5
20260506094546 46 226 0.0 3.0 0.11 0.86 0.63 93 1005.5
20260506094038 46 271 0.0 3.0 0.11 0.85 0.62 93 1005.3
20260506093539 46 0 0.0 2.0 0.12 0.85 0.62 93 1005.2
20260506093051 46 0 0.0 4.0 0.12 0.84 0.61 93 1005.4
20260506092539 46 0 0.0 6.0 0.13 0.84 0.61 93 1005.8
20260506092039 46 232 0.0 9.0 0.12 0.83 0.60 93 1006.0
20260506091548 46 140 2.0 9.0 0.11 0.82 0.58 93 1006.0
20260506091042 46 155 1.0 9.0 0.11 0.82 0.58 92 1005.9
20260506090541 47 208 0.0 12.0 0.09 0.80 0.57 92 1005.8
20260506090050 47 213 2.0 12.0 0.09 0.79 0.56 92 1005.7
20260506085541 47 146 2.0 11.0 0.08 0.77 0.54 92 1005.7
20260506085041 47 167 3.0 11.0 0.09 0.76 0.52 92 1005.7
20260506084547 48 0 1.0 10.0 0.09 0.74 0.51 92 1005.8
20260506084039 48 161 2.0 12.0 0.11 0.74 0.51 92 1005.7
20260506083539 49 173 4.0 12.0 0.13 0.73 0.50 93 1005.5
20260506083052 49 203 2.0 9.0 0.14 0.72 0.49 93 1005.4
20260506082539 49 0 0.0 4.0 0.16 0.71 0.48 93 1005.1
20260506082041 50 0 0.0 4.0 0.18 0.71 0.48 93 1004.8
20260506081558 50 0 1.0 4.0 0.19 0.71 0.48 93 1004.7
20260506081043 50 0 0.0 4.0 0.21 0.71 0.48 93 1004.6
20260506080540 50 0 0.0 4.0 0.23 0.71 0.48 93 1004.6
20260506073051 51 206 1.0 7.0 0.21 0.58 0.35 93 1004.5
20260506072542 51 0 1.0 5.0 0.20 0.55 0.32 93 1004.5
20260506072040 52 126 1.0 10.0 0.19 0.52 0.30 93 1004.5
20260506071610 52 165 0.0 10.0 0.18 0.52 0.29 93 1004.3
20260506071041 53 157 4.0 10.0 0.16 0.50 0.27 93 1004.4
20260506070541 54 180 0.0 6.0 0.14 0.48 0.25 93 1004.2
20260506062040 58 0 0.0 1.0 0.01 0.34 0.11 94 1004.6
20260506061551 58 0 0.0 1.0 0.01 0.34 0.11 94 1004.6
20260506061042 58 0 0.0 0.0 0.01 0.34 0.11 94 1004.6
20260506060545 58 0 0.0 1.0 0.01 0.34 0.11 94 1004.7
20260506060104 58 0 0.0 1.0 0.01 0.34 0.11 94 1004.6
20260506051039 58 0 0.0 1.0 0.07 0.33 0.10 94 1005.4
20260506050539 58 0 0.0 4.0 0.08 0.33 0.10 94 1005.6
20260506045039 58 0 0.0 4.0 0.12 0.33 0.10 94 1005.7
20260506044605 58 0 0.0 3.0 0.12 0.33 0.10 94 1005.8
20260506044040 58 38 0.0 3.0 0.12 0.32 0.09 94 1005.9
20260506043539 58 352 0.0 3.0 0.12 0.31 0.08 94 1005.9
20260506043055 58 0 0.0 3.0 0.13 0.31 0.08 94 1005.9
20260506042539 58 0 0.0 2.0 0.11 0.29 0.06 94 1006.1
20260506042038 58 0 0.0 3.0 0.10 0.28 0.05 94 1006.3
20260506041553 58 0 0.0 3.0 0.10 0.27 0.04 94 1006.2
20260506041039 58 0 0.0 2.0 0.10 0.26 0.03 94 1006.2
20260506040539 58 0 0.0 1.0 0.09 0.24 0.01 94 1006.4
20260506040053 58 0 0.0 0.0 0.10 0.24 0.01 94 1006.3
20260506035540 58 0 0.0 1.0 0.09 0.22 0.22 94 1006.4
20260506035040 58 0 0.0 1.0 0.08 0.21 0.21 94 1006.4
20260506034557 58 0 0.0 2.0 0.08 0.20 0.20 94 1006.4
20260506034040 58 0 0.0 2.0 0.09 0.20 0.20 94 1006.4
20260506033542 58 0 0.0 1.0 0.10 0.19 0.19 94 1006.4
20260506033050 59 0 0.0 1.0 0.09 0.18 0.18 93 1006.5
20260506032540 58 0 0.0 1.0 0.10 0.18 0.18 93 1006.5
20260506032039 59 0 0.0 1.0 0.11 0.18 0.18 93 1006.5
20260506031552 59 0 0.0 1.0 0.10 0.17 0.17 93 1006.5
20260506031041 58 0 0.0 1.0 0.10 0.16 0.16 93 1006.4
20260506030541 59 0 0.0 1.0 0.09 0.15 0.15 93 1006.4
20260506030052 59 154 0.0 1.0 0.08 0.14 0.14 93 1006.6
20260506025539 59 0 0.0 1.0 0.08 0.13 0.13 93 1006.6
20260506025039 59 143 0.0 2.0 0.07 0.12 0.12 93 1006.7
20260506024549 59 0 0.0 3.0 0.07 0.12 0.12 93 1006.6
20260506024041 59 0 0.0 3.0 0.05 0.10 0.10 93 1006.6
20260506023540 59 0 0.0 3.0 0.04 0.09 0.09 93 1006.7
20260506023048 59 135 1.0 2.0 0.04 0.09 0.09 93 1006.6
20260506022541 59 147 0.0 4.0 0.03 0.08 0.08 93 1006.6
20260506022040 59 0 0.0 6.0 0.02 0.07 0.07 93 1006.5
20260506021557 59 0 0.0 6.0 0.02 0.07 0.07 93 1006.5
20260506021040 59 150 1.0 6.0 0.01 0.06 0.06 93 1006.6
20260506020539 59 0 0.0 1.0 0.01 0.06 0.06 93 1006.5
20260506020051 59 0 0.0 4.0 0.01 0.06 0.06 93 1006.4
20260506015539 59 0 0.0 4.0 0.00 0.05 0.05 93 1006.6
20260506015040 59 332 0.0 4.0 0.00 0.05 0.05 92 1006.6
20260506014550 59 0 0.0 2.0 0.00 0.05 0.05 93 1006.7
20260506014041 59 0 0.0 1.0 0.00 0.05 0.05 93 1006.6
20260506013539 59 0 0.0 1.0 0.00 0.05 0.05 92 1006.5
20260506013048 59 0 0.0 1.0 0.00 0.05 0.05 92 1006.5
20260506012539 59 0 0.0 0.0 0.00 0.05 0.05 92 1006.4
20260506012038 59 0 0.0 0.0 0.00 0.05 0.05 92 1006.5
20260506011555 59 0 0.0 1.0 0.00 0.05 0.05 92 1006.4
20260506011043 59 0 0.0 1.0 0.00 0.05 0.05 92 1006.4
20260506010540 59 0 0.0 0.0 0.00 0.05 0.05 92 1006.3
20260506010056 59 0 0.0 2.0 0.01 0.05 0.05 91 1006.3
20260506005539 59 0 0.0 2.0 0.01 0.05 0.05 91 1006.3
20260506005040 59 0 0.0 2.0 0.02 0.05 0.05 91 1006.4
20260506004551 59 0 0.0 4.0 0.05 0.05 0.05 91 1006.4
20260506004040 59 0 0.0 4.0 0.05 0.05 0.05 91 1006.4
20260506003540 59 152 1.0 4.0 0.05 0.05 0.05 91 1006.4
20260506003046 59 138 1.0 4.0 0.05 0.05 0.05 91 1006.6
20260506002539 59 149 0.0 3.0 0.05 0.05 0.05 91 1006.4
20260506002040 59 0 0.0 3.0 0.05 0.05 0.05 90 1006.4
20260506001555 59 182 0.0 3.0 0.05 0.05 0.05 90 1006.5
20260506001039 59 124 0.0 6.0 0.05 0.05 0.05 90 1006.6
20260506000540 59 0 0.0 6.0 0.05 0.05 0.05 89 1006.6
20260506000049 59 146 1.0 8.0 0.04 0.04 0.04 89 1006.6
20260505235539 60 181 1.0 8.0 0.04 0.04 0.04 88 1006.7
20260505235040 60 144 3.0 16.0 0.03 0.03 0.03 87 1006.6
20260505234610 60 152 6.0 16.0 0.00 0.00 0.00 85 1006.6
20260505234043 61 121 4.0 14.0 0.00 0.00 0.00 84 1006.3
20260505233540 61 17 8.0 14.0 0.00 0.00 0.00 83 1006.3
20260505233052 62 149 6.0 17.0 0.00 0.00 0.00 80 1006.2
20260505232540 63 167 6.0 22.0 0.00 0.00 0.00 77 1006.2
20260505232039 65 145 9.0 22.0 0.00 0.00 0.00 72 1006.2
20260505231554 68 147 8.0 14.0 0.00 0.00 0.00 66 1006.2
20260505231042 68 140 2.0 7.0 0.00 0.00 0.00 60 1005.9
20260505230539 69 118 0.0 7.0 0.00 0.00 0.00 59 1005.8
20260505230052 69 59 1.0 7.0 0.00 0.00 0.00 58 1005.7
20260505225540 69 55 0.0 10.0 0.00 0.00 0.00 58 1005.6
20260505225039 69 0 2.0 10.0 0.00 0.00 0.00 57 1005.7
20260505224552 69 360 3.0 10.0 0.00 0.00 0.00 58 1005.6
20260505224039 69 54 3.0 10.0 0.00 0.00 0.00 58 1005.6
20260505223542 69 13 1.0 10.0 0.00 0.00 0.00 58 1005.8
20260505223104 70 39 2.0 13.0 0.00 0.00 0.00 57 1005.6
20260505222539 70 109 4.0 13.0 0.00 0.00 0.00 58 1005.5
20260505222039 69 236 4.0 9.0 0.00 0.00 0.00 58 1005.7
20260505221550 70 76 2.0 12.0 0.00 0.00 0.00 58 1005.8
20260505221039 70 45 1.0 12.0 0.00 0.00 0.00 58 1005.9
20260505220539 70 50 3.0 11.0 0.00 0.00 0.00 58 1005.8
20260505220055 70 9 2.0 11.0 0.00 0.00 0.00 57 1005.8
20260505215540 70 93 1.0 15.0 0.00 0.00 0.00 58 1005.8
20260505215039 70 90 1.0 15.0 0.00 0.00 0.00 60 1005.7
20260505214559 70 185 3.0 12.0 0.00 0.00 0.00 58 1005.6
20260505214041 69 161 1.0 11.0 0.00 0.00 0.00 59 1005.8
20260505213540 69 349 2.0 11.0 0.00 0.00 0.00 59 1005.6
20260505213054 69 36 1.0 9.0 0.00 0.00 0.00 60 1005.6
20260505212539 69 335 1.0 9.0 0.00 0.00 0.00 59 1005.7
20260505212039 69 0 0.0 9.0 0.00 0.00 0.00 61 1005.8
20260505211605 70 195 1.0 7.0 0.00 0.00 0.00 59 1005.9